Regional Weather Roundup
Issued by NWS Newport/Morehead, NC

Current Version | Previous Version | Text Only | Print | Product List | Glossary Off
Versions: 1 2 3 4 5 6 7 8 9 10 11 12 13 14 15 16 17 18 19 20 21 22 23 24 25 26 27 28 29 30 31 32 33 34 35 36 37 38 39 40 41 42 43 44 45 46 47 48 49 50
000 ASUS42 KMHX 211022 RWRMHX WEATHER ROUNDUP FOR EASTERN NORTH CAROLINA NATIONAL WEATHER SERVICE NEWPORT/MOREHEAD CITY NC 600 AM EDT TUE OCT 21 2014 NOTE: "FAIR" INDICATES FEW OR NO CLOUDS BELOW 12,000 FEET WITH NO SIGNIFICANT WEATHER AND/OR OBSTRUCTIONS TO VISIBILITY NCZ015>017-031-032-045>047-102-103-211100- NORTH COAST CITY SKY/WX TMP DP RH WIND PRES REMARKS EDENTON CLOUDY 60 58 94 SW3 29.93S ELIZABETH CITY CLOUDY 61 58 90 S5 29.92S KITTY HAWK PTSUNNY 63 62 96 S3 29.92S MANTEO MOCLDY 64 62 93 S8 29.94R $$ NCZ045>047-081-094-103-104-211100- CENTRAL COAST CITY SKY/WX TMP DP RH WIND PRES REMARKS FRISCO MOCLDY 70 64 81 CALM 29.93S SWANQUARTER N/A 63 N/A N/A CALM 29.88S $$ NCZ095-097-098-100-101-211100- SOUTHERN COAST CITY SKY/WX TMP DP RH WIND PRES REMARKS BEAUFORT PTCLDY 61 60 97 CALM 29.94S FOG CEDAR ISLAND N/A 63 N/A N/A W2 29.97S JACKSONVILLE MOCLDY 54 52 93 CALM 29.93S PINEY ISLAND MOSUNNY 65 62 90 SW3 29.93S FOG WILMINGTON PTCLDY 54 53 97 CALM 29.93S $$ NCZ011>013-027>030-043-044-078>080-089-090>093-098-211100- COASTAL PLAIN CITY SKY/WX TMP DP RH WIND PRES REMARKS AHOSKIE CLOUDY 55 54 94 CALM 29.92S CLINTON PTCLDY 55 55 100 CALM 29.93S ELIZABETHTOWN PTCLDY 56 56 98 CALM 29.93S GOLDSBORO MOCLDY 57 57 98 CALM 29.91R GREENVILLE CLOUDY 57 55 94 CALM 29.94S HAVELOCK PTCLDY 55 53 93 CALM 29.94S KENANSVILLE MOCLDY 53 52 97 CALM 29.94R FOG KINSTON CLOUDY 56 55 98 CALM 29.93F NEW BERN MOCLDY 55 52 89 CALM 29.94S RICHLANDS MOCLDY 52 48 87 CALM 29.94S ROCKY MOUNT MOCLDY 55 53 93 CALM 29.91S WASHINGTON CLOUDY 56 54 95 CALM 29.93S WHITEVILLE PTCLDY 56 55 95 CALM 29.93F $$ AMZ130-135-150-152-154-156-158-170-250-252-270-ANZ085-086-088-633-658-670-211100- MARINE OBSERVATIONS STATION/POSITION TIME TEMP WIND PRES WAVE SWELL AIR SEA DIR/SP/G HT/PER HT/PER (UTC) (F) (DEG/KT/KT) (MB) (FT/S) (FT/S) CHESAPEAKE LIGHT 1000 65 230/ 15/ 15 1013.1 64 E VA BEACH 1000 63 69 170/ 10/ 14 1013.1 4/ 5 3/ 5 DUCK 1000 64 69 210/ 6/ 7 1012.4 2 E DUCK 1000 N/A 2/11 2/11 10 NE DUCK 1000 71 N/A 3/13 2/13 OREGON INLET 1000 65 67 180/ 4/ 6 1013.5 13E OREGON INLT 1000 73 N/A 3/11 2/11 HATTERAS CG 1000 170/ 4/ 5 N/A DIAMOND BUOY 1000 65 320/ 4/ 8 1013.3 4/ 4 3/ 4 17 S OCRACOKE NOT AVBL CAPE LOOKOUT 1000 68 300/ 7/ 8 1013.6 BEAUFORT LAB 1000 320/ 2/ 4 N/A 30 SE NEW RIVER 1000 72 76 290/ 12/ 16 1013.2 3/ 4 2/10 5 SE WRIGHTSVLE 1000 66 73 290/ 10/ 12 N/A 225 S CAPE HAT 0950 70 80 170/ 10/ 14 1014.9 4/ 8 3/ 8 41 SE CHARLESTON 1000 74 79 200/ 6/ 8 1013.5 2/ 9 2/ 9 $$

USA.gov is the U.S. government's official web portal to all federal, state and local government web resources and services.